Location: Unspecified
(58.7730°N, 5.8460°E)
Time: 20:12:41
(UTC+01:00)

Okean 3 - Visible Passes

Search period start: 19 February 2017 00:00
Search period end: 01 March 2017 00:00
Orbit: 579 x 602 km, 82.5° (Epoch: 19 February)

Date Brightness Start Highest point End Pass type
(mag) Time Alt. Az. Time Alt. Az. Time Alt. Az.
19 Feb 4.6 18:56:02 10° NNW 19:00:13 49° W 19:04:22 10° S visible
20 Feb 7.4 05:59:05 10° E 05:59:33 10° ENE 06:00:00 10° ENE visible
20 Feb 5.3 19:04:29 10° NNW 19:08:29 37° W 19:12:25 10° SSW visible
21 Feb 6.9 06:05:30 10° ESE 06:07:39 14° E 06:09:48 10° NE visible
21 Feb 5.9 19:13:01 10° NNW 19:16:42 28° W 19:20:21 10° SSW visible
22 Feb 6.7 06:12:52 10° SE 06:15:46 18° E 06:18:42 10° NE visible
22 Feb 6.4 19:21:37 10° NW 19:24:53 21° W 19:28:08 10° SW visible
23 Feb 6.3 06:20:31 10° SE 06:23:56 23° E 06:27:23 10° NNE visible
23 Feb 6.8 19:30:21 10° NW 19:33:03 16° W 19:35:42 10° WSW visible
24 Feb 5.7 06:28:22 10° SSE 06:32:08 30° E 06:35:57 10° NNE visible
24 Feb 7.1 19:39:23 10° NW 19:41:10 12° WNW 19:42:56 10° WSW visible
25 Feb 5.1 06:36:21 10° SSE 06:40:22 40° E 06:44:27 10° NNE visible
26 Feb 4.4 06:44:26 10° S 06:48:38 54° E 06:52:53 10° NNE visible
27 Feb 6.9 05:18:20 10° ESE 05:20:25 13° E 05:22:32 10° NE visible
27 Feb 3.8 06:52:38 10° S 06:56:57 74° E 07:01:17 10° NNE visible
28 Feb 6.6 05:25:41 10° SE 05:28:34 18° E 05:31:27 10° NE visible
